Location: Montreal
(45.5000°N, 73.5833°W)
Time: 20:49:44
(UTC-05:00)

Vanguard 1 - Pass Details

Date: 26 October 2017
Orbit: 650 x 3834 km, 34.2° (Epoch: 23 November)

Event Time Altitude Azimuth Distance (km) Brightness Sun altitude
Rises 22:55:26 0° 218° (SW) 4,113 - -50.7°
Reaches altitude 10° 22:58:04 10° 208° (SSW) 3,463 - -51.0°
Maximum altitude 23:06:07 34° 147° (SSE) 2,931 - -51.9°
Drops below altitude 10° 23:19:27 10° 91° (E) 5,786 - -53.3°
Exits shadow 23:24:21 - 85° (E) 6,997 14.2 -53.8°
Sets 23:25:29 0° 84° (E) 7,272 14.3 -53.9°
